When you browse on this site, cookies collect data to enhance your experience and personalize the content and advertising you see.
Visit our Privacy Policy to learn more. By continuing to use the site, you agree to this use of cookies and data.
  • en France
  • Liste des pays
  • À 7 jours
  • Température de l'eau
  • Carte météo
  • Widgets météo
  • user-avatar
    Se connecter

    Météo par heure à Maurice

    Ce jour, 4 Avril, Samedi

    Heure Température Précipitation Vent Pression Humidité
    00:00 +24°C° 0.3 mm 2 m/s 719 mmHg 87%
    01:00 +24°C° 0.3 mm 2 m/s 719 mmHg 87%
    02:00 +24°C° 0.3 mm 2 m/s 719 mmHg 87%
    03:00 +24°C° 0.3 mm 2 m/s 718 mmHg 87%
    04:00 +24°C° 0.3 mm 2 m/s 718 mmHg 87%
    05:00 +24°C° 0.1 mm 2 m/s 719 mmHg 86%
    06:00 +24°C° 0.1 mm 2 m/s 719 mmHg 85%
    07:00 +24°C° 0.1 mm 2 m/s 719 mmHg 85%
    08:00 +25°C° 0 mm 2 m/s 720 mmHg 80%
    09:00 +26°C° 0 mm 2 m/s 720 mmHg 76%
    10:00 +27°C° 0 mm 3 m/s 720 mmHg 71%
    11:00 +27°C° 0.3 mm 3 m/s 720 mmHg 71%
    12:00 +27°C° 0.3 mm 3 m/s 720 mmHg 72%
    13:00 +27°C° 0.3 mm 3 m/s 719 mmHg 72%
    14:00 +27°C° 0.8 mm 4 m/s 719 mmHg 73%
    15:00 +26°C° 0.8 mm 4 m/s 719 mmHg 74%
    16:00 +26°C° 0.8 mm 5 m/s 719 mmHg 75%
    17:00 +26°C° 0 mm 5 m/s 720 mmHg 79%
    18:00 +25°C° 0 mm 5 m/s 720 mmHg 82%
    19:00 +23°C° 0 mm 5 m/s 720 mmHg 85%
    20:00 +23°C° 0.1 mm 5 m/s 721 mmHg 86%
    21:00 +23°C° 0.1 mm 5 m/s 721 mmHg 87%
    22:00 +23°C° 0.1 mm 5 m/s 721 mmHg 87%
    23:00 +23°C° 0.1 mm 5 m/s 721 mmHg 87%

    Demain, 5 Avril, Dimanche

    Heure Température Précipitation Vent Pression Humidité
    00:00 +23°C° 0.1 mm 5 m/s 721 mmHg 87%
    01:00 +23°C° 0.1 mm 5 m/s 721 mmHg 87%
    02:00 +23°C° 0 mm 4 m/s 721 mmHg 86%
    03:00 +23°C° 0 mm 4 m/s 721 mmHg 86%
    04:00 +22°C° 0 mm 4 m/s 720 mmHg 86%
    05:00 +23°C° 0 mm 4 m/s 721 mmHg 86%
    06:00 +23°C° 0 mm 4 m/s 721 mmHg 86%
    07:00 +23°C° 0 mm 4 m/s 722 mmHg 86%
    08:00 +25°C° 0 mm 5 m/s 722 mmHg 82%
    09:00 +26°C° 0 mm 5 m/s 722 mmHg 78%
    10:00 +27°C° 0 mm 5 m/s 723 mmHg 75%
    11:00 +27°C° 0 mm 5 m/s 722 mmHg 73%
    12:00 +27°C° 0 mm 5 m/s 722 mmHg 72%
    13:00 +27°C° 0 mm 5 m/s 722 mmHg 71%
    14:00 +27°C° 0 mm 6 m/s 722 mmHg 71%
    15:00 +27°C° 0 mm 6 m/s 722 mmHg 71%
    16:00 +26°C° 0 mm 6 m/s 721 mmHg 72%
    17:00 +26°C° 0 mm 6 m/s 722 mmHg 75%
    18:00 +24°C° 0 mm 6 m/s 722 mmHg 79%
    19:00 +23°C° 0 mm 5 m/s 723 mmHg 83%
    20:00 +23°C° 0 mm 6 m/s 723 mmHg 83%
    21:00 +23°C° 0 mm 6 m/s 723 mmHg 84%
    22:00 +23°C° 0 mm 6 m/s 723 mmHg 84%
    23:00 +23°C° 0 mm 6 m/s 723 mmHg 84%

    Après-demain, 6 Avril, Lundi

    Heure Température Précipitation Vent Pression Humidité
    00:00 +23°C° 0 mm 6 m/s 723 mmHg 84%
    01:00 +23°C° 0 mm 6 m/s 723 mmHg 84%
    02:00 +23°C° 0 mm 6 m/s 723 mmHg 84%
    03:00 +22°C° 0 mm 6 m/s 722 mmHg 84%
    04:00 +22°C° 0 mm 6 m/s 722 mmHg 84%
    05:00 +22°C° 0.1 mm 6 m/s 722 mmHg 84%
    06:00 +23°C° 0.1 mm 6 m/s 723 mmHg 85%
    07:00 +23°C° 0.1 mm 6 m/s 723 mmHg 86%
    08:00 +23°C° 0.1 mm 6 m/s 723 mmHg 82%
    09:00 +24°C° 0.1 mm 7 m/s 724 mmHg 78%
    10:00 +26°C° 0.1 mm 7 m/s 724 mmHg 75%
    11:00 +26°C° 0.1 mm 7 m/s 724 mmHg 74%
    12:00 +26°C° 0.1 mm 7 m/s 723 mmHg 73%
    13:00 +27°C° 0.1 mm 7 m/s 723 mmHg 72%
    14:00 +26°C° 0.1 mm 7 m/s 723 mmHg 72%
    15:00 +26°C° 0.1 mm 7 m/s 723 mmHg 73%
    16:00 +26°C° 0.1 mm 7 m/s 723 mmHg 73%
    17:00 +24°C° 0 mm 7 m/s 723 mmHg 75%
    18:00 +24°C° 0 mm 6 m/s 723 mmHg 78%
    19:00 +23°C° 0 mm 6 m/s 723 mmHg 80%
    20:00 +23°C° 0 mm 6 m/s 724 mmHg 81%
    21:00 +23°C° 0 mm 6 m/s 724 mmHg 81%
    22:00 +23°C° 0 mm 6 m/s 724 mmHg 81%
    23:00 +23°C° 0 mm 6 m/s 724 mmHg 82%

    7 Avril, Mardi

    Heure Température Précipitation Vent Pression Humidité
    00:00 +23°C° 0 mm 6 m/s 724 mmHg 82%
    01:00 +23°C° 0 mm 6 m/s 724 mmHg 82%
    02:00 +23°C° 0 mm 6 m/s 724 mmHg 82%
    03:00 +23°C° 0 mm 6 m/s 724 mmHg 83%
    04:00 +23°C° 0 mm 6 m/s 724 mmHg 83%
    05:00 +23°C° 0.2 mm 6 m/s 724 mmHg 83%
    06:00 +22°C° 0.2 mm 6 m/s 724 mmHg 84%
    07:00 +22°C° 0.2 mm 6 m/s 724 mmHg 85%
    08:00 +23°C° 0.3 mm 6 m/s 725 mmHg 82%
    09:00 +24°C° 0.3 mm 6 m/s 725 mmHg 79%
    10:00 +24°C° 0.3 mm 7 m/s 725 mmHg 76%
    11:00 +26°C° 0.2 mm 7 m/s 725 mmHg 75%
    12:00 +26°C° 0.2 mm 7 m/s 725 mmHg 73%
    13:00 +26°C° 0.2 mm 7 m/s 724 mmHg 72%
    14:00 +26°C° 0.1 mm 7 m/s 724 mmHg 73%
    15:00 +26°C° 0.1 mm 7 m/s 724 mmHg 74%
    16:00 +26°C° 0.1 mm 7 m/s 724 mmHg 76%
    17:00 +24°C° 0.1 mm 7 m/s 724 mmHg 78%
    18:00 +23°C° 0.1 mm 7 m/s 724 mmHg 81%
    19:00 +23°C° 0.1 mm 7 m/s 724 mmHg 84%
    20:00 +23°C° 0.1 mm 7 m/s 725 mmHg 85%
    21:00 +23°C° 0.1 mm 7 m/s 725 mmHg 85%
    22:00 +23°C° 0.1 mm 7 m/s 725 mmHg 86%
    23:00 +23°C° 0.1 mm 7 m/s 725 mmHg 86%

    8 Avril, Mercredi

    Heure Température Précipitation Vent Pression Humidité
    00:00 +23°C° 0.1 mm 7 m/s 725 mmHg 86%
    01:00 +23°C° 0.1 mm 6 m/s 724 mmHg 86%
    02:00 +23°C° 0.1 mm 6 m/s 724 mmHg 86%
    03:00 +22°C° 0.1 mm 6 m/s 724 mmHg 86%
    04:00 +22°C° 0.1 mm 6 m/s 724 mmHg 87%
    05:00 +22°C° 0.2 mm 6 m/s 724 mmHg 86%
    06:00 +23°C° 0.2 mm 6 m/s 725 mmHg 85%
    07:00 +23°C° 0.2 mm 6 m/s 725 mmHg 84%
    08:00 +24°C° 0.1 mm 6 m/s 725 mmHg 80%
    09:00 +24°C° 0.1 mm 6 m/s 726 mmHg 76%
    10:00 +26°C° 0.1 mm 6 m/s 726 mmHg 71%
    11:00 +27°C° 0 mm 6 m/s 726 mmHg 70%
    12:00 +27°C° 0 mm 6 m/s 725 mmHg 68%
    13:00 +27°C° 0 mm 5 m/s 725 mmHg 67%
    14:00 +27°C° 0 mm 5 m/s 725 mmHg 69%
    15:00 +27°C° 0 mm 5 m/s 725 mmHg 70%
    16:00 +26°C° 0 mm 5 m/s 725 mmHg 72%
    17:00 +26°C° 0 mm 5 m/s 725 mmHg 75%
    18:00 +25°C° 0 mm 5 m/s 725 mmHg 78%
    19:00 +23°C° 0 mm 5 m/s 725 mmHg 81%
    20:00 +23°C° 0 mm 5 m/s 725 mmHg 81%
    21:00 +23°C° 0 mm 5 m/s 725 mmHg 81%
    22:00 +23°C° 0 mm 5 m/s 725 mmHg 81%
    23:00 +23°C° 0 mm 5 m/s 725 mmHg 82%

    9 Avril, Jeudi

    Heure Température Précipitation Vent Pression Humidité
    00:00 +23°C° 0 mm 5 m/s 725 mmHg 82%
    01:00 +23°C° 0 mm 4 m/s 725 mmHg 83%
    02:00 +23°C° 0.1 mm 5 m/s 724 mmHg 83%
    03:00 +23°C° 0.1 mm 5 m/s 724 mmHg 84%
    04:00 +23°C° 0.1 mm 5 m/s 724 mmHg 84%
    05:00 +23°C° 0 mm 5 m/s 724 mmHg 83%
    06:00 +23°C° 0 mm 4 m/s 724 mmHg 82%
    07:00 +23°C° 0 mm 4 m/s 724 mmHg 81%
    08:00 +23°C° 0.1 mm 5 m/s 725 mmHg 79%
    09:00 +25°C° 0.1 mm 5 m/s 725 mmHg 77%
    10:00 +26°C° 0.1 mm 5 m/s 725 mmHg 75%
    11:00 +26°C° 0.4 mm 6 m/s 725 mmHg 74%
    12:00 +27°C° 0.4 mm 6 m/s 724 mmHg 74%
    13:00 +27°C° 0.4 mm 7 m/s 724 mmHg 74%
    14:00 +26°C° 0.5 mm 7 m/s 724 mmHg 74%
    15:00 +26°C° 0.5 mm 7 m/s 724 mmHg 75%
    16:00 +26°C° 0.5 mm 7 m/s 723 mmHg 75%
    17:00 +24°C° 0.6 mm 7 m/s 724 mmHg 78%
    18:00 +24°C° 0.6 mm 7 m/s 724 mmHg 81%
    19:00 +23°C° 0.6 mm 6 m/s 724 mmHg 83%
    20:00 +23°C° 0.4 mm 7 m/s 724 mmHg 84%
    21:00 +23°C° 0.4 mm 7 m/s 724 mmHg 84%
    22:00 +23°C° 0.4 mm 7 m/s 725 mmHg 85%
    23:00 +23°C° 0.1 mm 7 m/s 724 mmHg 85%
    Voir plus